Whiteman AFB, MO

10:30 AM CDT on May 21, 2018 (GMT -0500)
Whiteman Air Force Base

Weather History for KSZL - February, 2013

Change the Weather History Date:

Saturday, February 16, 2013

  Actual Average Record
Temperature  
Mean Temperature 26 °F -  
Max Temperature 35 °F 44 °F 68 °F (2017)
Min Temperature 17 °F 28 °F -5 °F (2007)
Degree Days  
Heating Degree Days 39    
Moisture  
Dew Point 18 °F    
Average Humidity 64    
Maximum Humidity 83    
Minimum Humidity 49    
Precipitation  
Precipitation 0.00 in - - ()
Sea Level Pressure  
Sea Level Pressure 30.25 in    
Wind  
Wind Speed 6 mph (SW)    
Max Wind Speed 15 mph    
Max Gust Speed 18 mph    
Visibility 10 miles    
Events      
Averages and records for this station are not official NWS values.
T = Trace of Precipitation, MM = Missing Value Source: NWS Daily Summary

Daily Weather History Graph

Daily Weather History Graph

Search for Another Location

Airport or City:

Astronomy

Feb. 16, 2013 Rise Set
Actual Time 7:03 AM CST 5:53 PM CST
Civil Twilight 6:36 AM CST 6:20 PM CST
Nautical Twilight 6:05 AM CST 6:51 PM CST
Astronomical Twilight 5:34 AM CST 7:22 PM CST
Moon 10:21 AM CST (2/16) No Moon Set
Length of Visible Light 11h 44m
Length of Day
10h 49m
Waxing Crescent, 39% of the Moon is Illuminated
Feb 16
Waxing Crescent
Feb 17
First Quarter
Feb 25
Full
Mar 4
Last Quarter
Mar 11
New

Hourly Weather History & Observations

Time (CST) Temp. Windchill Dew Point Humidity Pressure Visibility Wind Dir Wind Speed Gust Speed Precip Events Conditions
12:55 AM 26.1 °F 20.5 °F 15.1 °F 63% 30.32 in 10.0 mi North 4.6 mph - N/A   Mostly Cloudy
2:55 AM 23.0 °F 15.8 °F 15.4 °F 73% 30.31 in 10.0 mi NNW 5.8 mph - N/A   Clear
3:55 AM 21.2 °F 14.9 °F 15.1 °F 77% 30.31 in 10.0 mi NNW 4.6 mph - N/A   Clear
4:55 AM 20.1 °F 12.3 °F 14.7 °F 80% 30.32 in 10.0 mi NW 5.8 mph - N/A   Clear
5:55 AM 19.4 °F 11.5 °F 14.2 °F 80% 30.33 in 10.0 mi NNW 5.8 mph - N/A   Clear
6:55 AM 17.8 °F 9.6 °F 13.5 °F 83% 30.34 in 10.0 mi NW 5.8 mph - N/A   Clear
7:55 AM 20.5 °F 14.0 °F 14.9 °F 79% 30.34 in 10.0 mi NW 4.6 mph - N/A   Clear
8:55 AM 23.5 °F - 15.4 °F 71% 30.35 in 10.0 mi Calm Calm - N/A   Clear
9:55 AM 26.4 °F - 15.3 °F 63% 30.34 in 10.0 mi Calm Calm - N/A   Clear
10:55 AM 30.0 °F 25.2 °F 15.6 °F 55% 30.32 in 10.0 mi SW 4.6 mph - N/A   Clear
11:55 AM 32.0 °F 26.4 °F 16.3 °F 52% 30.30 in 10.0 mi SSW 5.8 mph - N/A   Clear
12:55 PM 34.9 °F 26.2 °F 18.3 °F 51% 30.25 in 10.0 mi WSW 12.7 mph 18.4 mph N/A   Partly Cloudy
1:55 PM 35.1 °F 27.9 °F 17.4 °F 49% 30.22 in 10.0 mi WSW 9.2 mph - N/A   Mostly Cloudy
2:55 PM 35.8 °F 28.3 °F 18.3 °F 49% 30.20 in 10.0 mi SW 10.4 mph - N/A   Overcast
3:55 PM 34.9 °F 25.3 °F 18.9 °F 52% 30.19 in 10.0 mi SSW 15.0 mph - N/A   Overcast
4:55 PM 33.8 °F 24.8 °F 18.0 °F 52% 30.20 in 10.0 mi SSW 12.7 mph - N/A   Overcast
5:55 PM 33.4 °F 24.8 °F 20.1 °F 58% 30.20 in 10.0 mi SW 11.5 mph - N/A   Overcast
6:55 PM 33.1 °F 26.1 °F 20.5 °F 60% 30.20 in 10.0 mi SSW 8.1 mph - N/A   Overcast
7:55 PM 31.6 °F 25.1 °F 22.3 °F 68% 30.19 in 10.0 mi SSW 6.9 mph - N/A   Overcast
8:55 PM 31.8 °F 26.2 °F 22.1 °F 67% 30.17 in 10.0 mi South 5.8 mph - N/A   Overcast
9:55 PM 32.2 °F 25.8 °F 21.7 °F 65% 30.17 in 10.0 mi SSE 6.9 mph - N/A   Overcast
10:55 PM 32.0 °F 25.6 °F 22.1 °F 67% 30.15 in 10.0 mi South 6.9 mph - N/A   Overcast
11:55 PM 32.2 °F 25.8 °F 22.3 °F 67% 30.14 in 10.0 mi SSE 6.9 mph - N/A   Overcast